This is the latest recevied weather packets stored in our database for station/object AD7ZD. If no packets are shown the sender has not sent any weather packets the latest 10 day(s).
| Time | Temp. | Humidity | Pressure | Rain* | Wind** | Luminosity | Snow |
|---|---|---|---|---|---|---|---|
| 1777728262 | 7.78° C | 33% | 1013 hPa | 0 mm | - | 15 W/m² | - |
| 1777727959 | 7.22° C | 33% | 1013 hPa | 0 mm | - | 11 W/m² | - |
| 1777727656 | 7.78° C | 32% | 1012.8 hPa | 0 mm | - | 7 W/m² | - |
| 1777727353 | 7.22° C | 35% | 1012.9 hPa | 0 mm | - | 4 W/m² | - |
| 1777727051 | 6.67° C | 34% | 1013 hPa | 0 mm | - | 1 W/m² | - |
| 1777726748 | 7.22° C | 36% | 1012.7 hPa | 0 mm | - | 0 W/m² | - |
| 1777726445 | 7.22° C | 34% | 1012.8 hPa | 0 mm | - | 0 W/m² | - |
| 1777726142 | 7.78° C | 35% | 1012.8 hPa | 0 mm | - | 0 W/m² | - |
| 1777725838 | 7.78° C | 36% | 1012.7 hPa | 0 mm | - | 0 W/m² | - |
| 1777725536 | 7.78° C | 36% | 1012.7 hPa | 0 mm | - | 0 W/m² | - |
| 1777725233 | 7.22° C | 35% | 1012.9 hPa | 0 mm | - | 0 W/m² | - |
| 1777724931 | 7.22° C | 35% | 1012.8 hPa | 0 mm | - | 0 W/m² | - |
| 1777724626 | 7.22° C | 35% | 1013 hPa | 0 mm | - | 0 W/m² | - |
| 1777724325 | 8.33° C | 32% | 1012.8 hPa | 0 mm | - | 0 W/m² | - |
| 1777724022 | 6.67° C | 32% | 1012.7 hPa | 0 mm | - | 0 W/m² | - |
| 1777723719 | 7.78° C | 29% | 1012.9 hPa | 0 mm | - | 0 W/m² | - |
| 1777723415 | 7.78° C | 30% | 1012.5 hPa | 0 mm | - | 0 W/m² | - |
| 1777723113 | 8.89° C | 34% | 1012.6 hPa | 0 mm | - | 0 W/m² | - |
| 1777722810 | 7.78° C | 31% | 1012.7 hPa | 0 mm | - | 0 W/m² | - |
| 1777722506 | 7.78° C | 32% | 1012.7 hPa | 0 mm | - | 0 W/m² | - |
| 1777722203 | 7.78° C | 34% | 1012.7 hPa | 0 mm | - | 0 W/m² | - |
| 1777721900 | 7.22° C | 36% | 1012.9 hPa | 0 mm | - | 0 W/m² | - |
| 1777721598 | 7.22° C | 40% | 1012.9 hPa | 0 mm | - | 0 W/m² | - |
| 1777721296 | 7.22° C | 43% | 1012.7 hPa | 0 mm | - | 0 W/m² | - |
| 1777720993 | 6.67° C | 38% | 1012.7 hPa | 0 mm | - | 0 W/m² | - |
* Rain latest hour (hover to see other rain measurements)
** Current wind speed in m/s (hover to see current wind gust speed)